AirNav   Duncan Aviation - Near you to keep you flying
 
 1565 users online  

05S Vernonia Municipal Airport
Vernonia, Oregon, USA

GOING TO VERNONIA?


FAA INFORMATION EFFECTIVE 26 JANUARY 2023

Location

FAA Identifier: 05S
Lat/Long: 45-51-07.5825N 123-14-34.3295W
45-51.126375N 123-14.572158W
45.8521062,-123.2428693
(estimated)
Elevation: 650 ft. / 198.1 m (surveyed)
Variation: 20E (1985)
From city: 2 miles W of VERNONIA, OR
Time zone: UTC -8 (UTC -7 during Daylight Saving Time)
Zip code: 97064

Airport Operations

Airport use: Open to the public
Activation date: 12/1938
Control tower: no
ARTCC: SEATTLE CENTER
FSS: MC MINNVILLE FLIGHT SERVICE STATION
NOTAMs facility: MMV (NOTAM-D service available)
Attendance: UNATNDD
Wind indicator: no
Segmented circle: no

Airport Communications

CTAF: 122.9
WX ASOS at SPB (17 nm E): 135.875 (503-543-6401)

Nearby radio navigation aids

VOR radial/distance  VOR name  Freq  Var
BTGr262/28.0BATTLE GROUND VORTAC116.6021E
UBGr319/31.9NEWBERG VOR/DME117.4021E
ASTr110/32.4ASTORIA VOR/DME114.0015E

 
NDB name  Hdg/Dist  Freq  Var  ID
BANKS312/15.735616EPND .--. -. -..

Airport Services

Parking: tiedowns
Airframe service: NONE
Powerplant service: NONE
Bottled oxygen: NONE
Bulk oxygen: NONE

Runway Information

Runway 9/27

Dimensions: 2940 x 45 ft. / 896 x 14 m
Surface: turf, in good condition
Runway edge markings: RWY EDGE MKD WITH W MATS.
RUNWAY 9  RUNWAY 27
Latitude: 45-51.231582N45-51.021167N
Longitude: 123-14.884150W123-14.260167W
Elevation: 647.0 ft.650.0 ft.
Traffic pattern: rightleft
Runway heading: 096 magnetic, 116 true276 magnetic, 296 true
Markings: nonenone
Obstructions: 4 ft. fence
BEYOND FENCE, OBSTRUCTION CLEARANCE SLOPE IS 9:1.
15 ft. road, 3 ft. from runway, 1:1 slope to clear

Airport Ownership and Management from official FAA records

Ownership: Publicly-owned
Owner: CITY OF VERNONIA
1001 BRIDGE AVE
VERNONIA, OR 97064
Phone 503-429-5291
Manager: MICHAEL SEAGER
536 1ST AVE.
VERNONIA, OR 97064
Phone 503-709-4075

Airport Operational Statistics

Aircraft based on the field: 5
Single engine airplanes: 5
    
Aircraft operations: avg 57/week *
50% transient general aviation
50% local general aviation
* for 12-month period ending 08 January 2019

Additional Remarks

HANGARS 100 FT RIGHT OF CNTRLN ON AER 27.
RY 27 HAS MULTIPLE OBSTRUCTIONS WITHIN 1000 FT E. CURVED APCH FM THE SOUTHEAST RECOMMENDED.
RY 09 4FT FENCE AT RY END MARKED BY ORANGE PYLONS.
RY 27 10 FT ROAD 10 FT FROM RY END.
DEER AND ELK ON AND IN VICINITY OF AIRPORT
FOR CD CTC PORTLAND APCH AT 503-493-7545.

Instrument Procedures

There are no published instrument procedures at 05S.

Some nearby airports with instrument procedures:

KSPB - Scappoose Airport (17 nm E)
KKLS - Southwest Washington Regional Airport (21 nm NE)
KHIO - Portland-Hillsboro Airport (22 nm SE)
KVUO - Pearson Field Airport (28 nm SE)
KPDX - Portland International Airport (31 nm SE)
 
Loc | Ops | Rwys | IFR | FBO | Links
Com | Nav | Svcs | Stats | Notes
Area around 05S (Vernonia Municipal Airport)
 
Road maps at: MapQuest Bing Google
 
Aerial photo
WARNING: Photo may not be current or correct
Aerial photo of 05S (Vernonia Municipal Airport)
Do you have a better or more recent aerial photo of Vernonia Municipal Airport that you would like to share? If so, please send us your photo.

 
Sectional chart

 
Airport distance calculator
Flying to Vernonia Municipal Airport? Find the distance to fly.

From to 05S

Sunrise and sunset
Times for 03-Feb-2023
 Local
(UTC-8)
 Zulu
(UTC)
Morning civil twilight07:0215:02
Sunrise07:3315:33
Sunset17:2001:20
Evening civil twilight17:5201:52

Current date and time
Zulu (UTC)  03-Feb-2023 17:19:51
Local (UTC-8)  03-Feb-2023 09:19:51
 
METAR
KSPB 
17nm E 
031653Z AUTO 00000KT 10SM FEW060 OVC085 03/00 A2992 RMK AO2 SLP133 T00330000
KKLS 
21nm NE 
031656Z AUTO 16013G18KT 10SM OVC080 04/M01 A2990 RMK AO2 SLP130 T00441011 $
KHIO 
22nm SE 
031653Z 00000KT 8SM -RA SCT055 BKN080 OVC090 03/00 A2993 RMK AO2 RAB51 SLP139 P0000 T00330000
KVUO 
29nm SE 
031653Z AUTO 12006KT 10SM FEW070 BKN090 OVC110 06/M02 A2995 RMK AO2 SLP143 T00611017
KPDX 
31nm SE 
031653Z 13010KT 10SM SCT080 BKN095 OVC120 06/M02 A2993 RMK AO2 SLP135 T00611022
KAST 
32nm NW 
031655Z AUTO 14010G19KT 10SM -RA OVC041 09/04 A2980 RMK AO2 SLP091 P0003 T00940044
TAF
KHIO 
22nm SE 
031145Z 0312/0412 00000KT P6SM BKN100 WS020/18030KT FM031700 10006KT 6SM -RA OVC045 WS020/19040KT FM032100 19018G28KT 5SM -RA BR BKN025 OVC040 FM040000 19016G24KT P6SM -RA BKN025 OVC045 FM040600 15009KT P6SM -RA BKN050
NOTAMs
Click for the latest NOTAMs
NOTAMs are issued by the DoD/FAA and will open in a separate window not controlled by AirNav.

 

 
 

Would you like to see your business listed on this page?

 If your business provides an interesting product or service to pilots, flight crews, aircraft, or users of the Vernonia Municipal Airport, you should consider listing it here.  To start the listing process, click on the button below
 
Add a business
 

Other Pages about Vernonia Municipal Airport

Update a link
 
Copyright © AirNav, LLC. All rights reserved. Privacy Policy  Contact